GW0207 Weather Reports


time (UTC)temp
F
wind
direction
speed
knots
gust
knots
rain 1hr
in
rain 24hr
in
rain mn
in
humidity
%
barometer
mb
20260502183031 55 250 0.0 1.7 0.00 0.17 0.17 89 1011.7
20260502182531 55 216 0.0 0.9 0.00 0.17 0.17 91 1011.9
20260502182031 55 49 0.0 1.7 0.00 0.17 0.17 90 1011.9
20260502181532 54 227 0.0 1.7 0.00 0.17 0.17 90 1011.9
20260502181032 54 266 0.0 0.9 0.00 0.17 0.17 92 1012.1
20260502180531 54 251 0.0 0.9 0.00 0.17 0.17 92 1012.0
20260502164012 52 269 0.0 0.0 0.02 0.17 0.17 93 1012.8
20260502163506 52 44 0.0 1.7 0.02 0.17 0.17 93 1012.9
20260502163008 52 253 0.0 1.7 0.01 0.16 0.16 92 1013.1
20260502162505 52 351 0.0 0.9 0.01 0.16 0.16 93 1013.2
20260502162005 52 90 0.0 0.9 0.01 0.16 0.16 93 1013.4
20260502161730 52 256 0.0 0.9 0.01 0.16 0.16 93 1013.4
20260502161005 52 332 0.0 0.0 0.01 0.16 0.16 93 1013.3
20260502160506 52 240 0.0 3.5 0.02 0.16 0.16 93 1013.3
20260502152001 52 81 0.0 0.9 0.03 0.15 0.15 93 1013.0
20260502151502 52 69 0.0 1.7 0.04 0.15 0.15 93 1012.9
20260502151001 52 270 0.0 1.7 0.04 0.15 0.15 93 1013.0
20260502150500 52 265 0.0 0.9 0.04 0.14 0.14 93 1013.1
20260502130153 52 306 0.0 0.9 0.02 0.04 0.04 93 1012.1
20260502123429 52 353 0.0 0.9 0.02 0.03 0.03 92 1011.9
20260502123145 52 71 0.0 0.0 0.02 0.03 0.03 92 1011.7
20260502122428 52 72 0.0 0.0 0.02 0.03 0.03 92 1011.6
20260502121928 52 131 0.0 0.9 0.02 0.03 0.03 92 1011.6
20260502121429 52 251 0.0 0.9 0.01 0.02 0.02 92 1011.6
20260502120928 52 62 0.0 0.0 0.01 0.02 0.02 92 1011.8
20260502120429 52 67 0.0 0.0 0.01 0.02 0.02 91 1011.6
20260502115928 52 299 0.0 0.0 0.02 0.02 0.02 91 1011.7
20260502115429 52 3 0.0 0.0 0.02 0.02 0.02 91 1011.8
20260502115152 52 314 0.0 0.0 0.02 0.02 0.02 91 1011.8
20260502114431 52 70 0.0 0.9 0.02 0.02 0.02 91 1011.8
20260502113928 52 72 0.0 0.9 0.02 0.02 0.02 90 1011.8
20260502113429 52 236 0.0 0.9 0.01 0.01 0.01 90 1011.8
20260502112929 52 309 0.0 0.9 0.01 0.01 0.01 90 1011.8
20260502112648 52 343 0.0 0.9 0.01 0.01 0.01 90 1012.0
20260502111930 52 294 0.0 0.9 0.01 0.01 0.01 90 1012.0
20260502111428 52 8 0.0 0.0 0.01 0.01 0.01 90 1012.0
20260502110929 52 79 0.0 0.0 0.01 0.01 0.01 90 1011.9
20260502110428 53 82 0.0 0.0 0.01 0.01 0.01 90 1012.1
20260502105928 53 82 0.0 0.0 0.00 0.00 0.00 89 1012.1
20260502105429 53 6 0.0 0.0 0.00 0.00 0.00 89 1012.1
20260502104929 53 8 0.0 0.0 0.00 0.00 0.00 88 1012.1
20260502104430 53 11 0.0 0.0 0.00 0.00 0.00 88 1012.0
20260502103929 53 270 0.0 0.9 0.00 0.00 0.00 88 1012.0
20260502103431 53 27 0.0 0.9 0.00 0.00 0.00 88 1012.0
20260502102928 53 100 0.0 0.9 0.00 0.00 0.00 88 1012.0
20260502102428 53 64 0.0 0.9 0.00 0.00 0.00 89 1012.0
20260502101929 53 64 0.0 0.9 0.00 0.00 0.00 90 1011.8
20260502101430 53 145 0.0 0.0 0.00 0.00 0.00 90 1012.0
20260502100929 53 145 0.0 0.0 0.00 0.00 0.00 91 1012.0
20260502100431 53 145 0.0 0.0 0.00 0.00 0.00 91 1012.0
20260502091428 52 165 0.0 0.0 0.00 0.00 0.00 93 1011.8
20260502090929 52 165 0.0 0.0 0.00 0.00 0.00 93 1011.7
20260502090428 52 165 0.0 0.0 0.00 0.00 0.00 94 1011.7
20260502071404 51 225 0.0 0.0 0.00 0.00 0.00 93 1011.2
20260502070901 51 225 0.0 0.0 0.00 0.00 0.00 93 1011.3
20260502070401 51 225 0.0 0.0 0.00 0.00 0.00 93 1011.3
20260502065901 51 225 0.0 0.0 0.00 0.00 0.00 93 1011.3
20260502065400 51 225 0.0 0.0 0.00 0.00 0.00 93 1011.2
20260502064901 51 225 0.0 0.0 0.00 0.00 0.00 93 1011.2
20260502064404 51 225 0.0 0.0 0.00 0.00 0.00 93 1011.2
20260502063903 51 225 0.0 0.0 0.00 0.00 0.00 93 1011.3
20260502063627 52 225 0.0 0.0 0.00 0.00 0.00 93 1011.3
20260502062905 52 225 0.0 0.0 0.00 0.00 0.00 93 1011.5
20260502062404 52 226 0.0 0.0 0.00 0.00 0.00 93 1011.5
20260502061903 52 226 0.0 0.0 0.00 0.00 0.00 92 1011.4
20260502061403 52 226 0.0 0.0 0.00 0.00 0.00 92 1011.4
20260502060903 52 226 0.0 0.0 0.00 0.00 0.00 92 1011.4
20260502060403 52 226 0.0 0.0 0.00 0.00 0.00 92 1011.5
20260502055905 52 226 0.0 0.0 0.00 0.00 0.00 92 1011.5
20260502055404 52 225 0.0 0.0 0.00 0.00 0.00 92 1011.5
20260502054902 52 225 0.0 0.0 0.00 0.00 0.00 92 1011.5
20260502054403 52 225 0.0 0.0 0.00 0.00 0.00 92 1011.6
20260502054123 52 225 0.0 0.0 0.00 0.00 0.00 92 1011.8
20260502053404 52 226 0.0 0.0 0.00 0.00 0.00 92 1011.7
20260502052903 52 226 0.0 0.0 0.00 0.00 0.00 92 1011.8
20260502052404 52 226 0.0 0.0 0.00 0.00 0.00 92 1011.8
20260502051903 52 226 0.0 0.0 0.00 0.00 0.00 91 1011.9
20260502051403 52 226 0.0 0.0 0.00 0.00 0.00 91 1011.9
20260502050903 52 225 0.0 0.0 0.00 0.00 0.00 91 1011.9
20260502050403 52 225 0.0 0.0 0.00 0.00 0.00 91 1012.0
20260502045903 52 225 0.0 0.0 0.00 0.00 0.00 91 1012.0
20260502045403 52 226 0.0 0.0 0.00 0.00 0.00 91 1011.9
20260502044905 52 226 0.0 0.0 0.00 0.00 0.00 91 1012.0
20260502044403 52 225 0.0 0.0 0.00 0.00 0.00 91 1012.0
20260502043903 52 226 0.0 0.0 0.00 0.00 0.00 91 1012.0
20260502043402 52 225 0.0 0.0 0.00 0.00 0.00 91 1012.0
20260502042904 52 226 0.0 0.0 0.00 0.00 0.00 91 1012.0
20260502042405 52 225 0.0 0.0 0.00 0.00 0.00 91 1012.1
20260502041902 52 225 0.0 0.0 0.00 0.00 0.00 91 1012.2
20260502041403 52 225 0.0 0.0 0.00 0.00 0.00 91 1012.3
20260502041354 52 225 0.0 0.0 0.00 0.00 0.00 91 1012.3
20260502040403 52 225 0.0 0.0 0.00 0.00 0.00 91 1012.2
20260502035903 52 225 0.0 0.0 0.00 0.00 0.00 91 1012.2
20260502035404 52 225 0.0 0.0 0.00 0.00 0.00 91 1012.3
20260502034900 52 225 0.0 0.0 0.00 0.00 0.00 91 1012.4
20260502034401 52 225 0.0 0.0 0.00 0.00 0.00 91 1012.3
20260502033901 52 226 0.0 0.0 0.00 0.00 0.00 90 1012.3
20260502033400 52 226 0.0 0.0 0.00 0.00 0.00 90 1012.3
20260502032900 52 226 0.0 0.0 0.00 0.00 0.00 90 1012.2
20260502032401 52 226 0.0 0.0 0.00 0.00 0.00 90 1012.3
20260502031901 52 226 0.0 0.0 0.00 0.00 0.00 90 1012.3
20260502031400 52 226 0.0 0.0 0.00 0.00 0.00 89 1012.3
20260502030901 52 225 0.0 0.0 0.00 0.00 0.00 89 1012.4
20260502030402 52 225 0.0 0.0 0.00 0.00 0.00 89 1012.5
20260502025901 52 225 0.0 0.0 0.00 0.00 0.00 89 1012.5
20260502025401 53 225 0.0 0.0 0.00 0.00 0.00 89 1012.5
20260502024901 53 225 0.0 0.0 0.00 0.00 0.00 89 1012.5
20260502024626 53 225 0.0 0.0 0.00 0.00 0.00 89 1012.6
20260502023901 53 225 0.0 0.0 0.00 0.00 0.00 89 1012.5
20260502023400 53 228 0.0 0.0 0.00 0.00 0.00 89 1012.4
20260502022901 53 228 0.0 0.0 0.00 0.00 0.00 89 1012.5
20260502022400 53 229 0.0 0.0 0.00 0.00 0.00 89 1012.7
20260502021901 53 228 0.0 0.0 0.00 0.00 0.00 89 1012.7
20260502021401 53 229 0.0 0.0 0.00 0.00 0.00 89 1012.6
20260502020901 53 229 0.0 0.0 0.00 0.00 0.00 89 1012.6
20260502020400 53 84 0.0 0.0 0.00 0.00 0.00 88 1012.7
20260502015900 53 85 0.0 0.0 0.00 0.00 0.00 88 1012.6
20260502015401 53 84 0.0 0.0 0.00 0.00 0.00 88 1012.6
20260502014901 53 84 0.0 0.0 0.00 0.00 0.00 88 1012.5
20260502014401 53 84 0.0 0.0 0.00 0.00 0.00 89 1012.6
20260502014122 53 84 0.0 0.0 0.00 0.00 0.00 89 1012.6
20260502013354 53 84 0.0 0.0 0.00 0.00 0.00 89 1012.6
20260502012849 53 84 0.0 0.0 0.00 0.00 0.00 89 1012.6
20260502012343 52 84 0.0 0.0 0.00 0.00 0.00 88 1012.7
20260502011838 52 84 0.0 0.0 0.00 0.00 0.00 88 1012.7
20260502011339 52 84 0.0 0.0 0.00 0.00 0.00 88 1012.5
20260502010840 52 84 0.0 0.0 0.00 0.00 0.00 87 1012.2
20260502010339 52 84 0.0 0.0 0.00 0.00 0.00 87 1012.3
20260502005839 52 84 0.0 0.0 0.00 0.00 0.00 86 1012.2
20260502005337 52 84 0.0 0.0 0.00 0.00 0.00 86 1012.3
20260502004838 52 84 0.0 0.0 0.00 0.00 0.00 85 1012.2
20260502004337 53 84 0.0 0.0 0.00 0.00 0.00 85 1012.1
20260502003837 53 84 0.0 0.0 0.00 0.00 0.00 85 1012.1
20260502003337 53 84 0.0 0.0 0.00 0.00 0.00 84 1012.0
20260502002835 53 84 0.0 0.0 0.00 0.00 0.00 83 1011.9
20260502002333 53 84 0.0 0.0 0.00 0.00 0.00 83 1011.8
20260502001835 54 84 0.0 0.0 0.00 0.00 0.00 82 1011.8
20260502001332 54 84 0.0 0.0 0.00 0.00 0.00 82 1011.8
20260502000832 54 84 0.0 0.0 0.00 0.00 0.00 81 1011.8
20260502000332 54 216 0.0 0.0 0.00 0.00 0.00 81 1011.8
20260501235832 55 216 0.0 0.0 0.00 0.00 0.00 80 1012.0
20260501235331 55 216 0.0 0.0 0.00 0.00 0.00 80 1012.0
20260501234830 55 216 0.0 0.0 0.00 0.00 0.00 79 1011.9
20260501234328 55 217 0.0 0.0 0.00 0.00 0.00 78 1011.8
20260501233829 55 217 0.0 0.0 0.00 0.00 0.00 78 1011.8
20260501233329 55 220 0.0 0.0 0.00 0.00 0.00 78 1011.8
20260501232828 55 219 0.0 0.0 0.00 0.00 0.00 77 1011.7
20260501232330 55 219 0.0 0.0 0.00 0.00 0.00 77 1011.7
20260501231829 55 220 0.0 0.0 0.00 0.00 0.00 76 1011.7
20260501231555 56 187 0.0 0.0 0.00 0.00 0.00 75 1011.8
20260501230828 56 102 0.0 0.0 0.00 0.00 0.00 75 1011.8
20260501230328 56 225 0.0 0.9 0.00 0.00 0.00 75 1011.9
20260501225829 56 226 0.0 0.9 0.00 0.00 0.00 74 1011.7
20260501225329 56 230 0.0 0.0 0.00 0.00 0.00 74 1011.8
20260501224829 57 209 0.0 0.9 0.00 0.00 0.00 75 1011.9
20260501224328 57 224 0.0 0.9 0.00 0.00 0.00 75 1012.0
20260501223830 57 185 0.0 0.9 0.00 0.00 0.00 75 1012.1
20260501223329 57 86 0.0 0.9 0.00 0.00 0.00 76 1012.2
20260501223050 56 189 0.0 0.9 0.00 0.00 0.00 75 1012.3
20260501222328 56 46 0.0 0.9 0.00 0.00 0.00 75 1012.5
20260501222046 56 195 0.0 1.7 0.00 0.00 0.00 76 1012.4
20260501221318 56 111 0.0 1.7 0.00 0.00 0.00 77 1012.4
20260501220819 56 204 0.0 0.9 0.00 0.00 0.00 76 1012.5
20260501220317 56 88 0.0 0.0 0.00 0.00 0.00 77 1012.6
20260501220043 56 211 0.0 0.9 0.00 0.00 0.00 77 1012.6
20260501215313 56 211 0.0 0.9 0.00 0.00 0.00 76 1012.6
20260501214811 56 223 0.0 0.9 0.00 0.00 0.00 76 1012.6
20260501214755 56 95 0.0 0.9 0.00 0.00 0.00 75 1012.6
20260501214030 56 233 0.0 0.9 0.00 0.00 0.00 76 1012.6
20260501213308 56 221 0.0 1.7 0.00 0.00 0.00 76 1012.6
20260501212807 56 157 0.0 1.7 0.00 0.00 0.00 76 1012.5
20260501212307 56 62 0.0 0.9 0.00 0.00 0.00 77 1012.5
20260501211806 56 192 0.0 0.9 0.00 0.00 0.00 77 1012.5
20260501211307 56 116 0.0 2.6 0.00 0.00 0.00 77 1012.4
20260501211027 56 84 0.0 2.6 0.00 0.00 0.00 77 1012.5
20260501210305 56 196 0.0 0.9 0.00 0.00 0.00 78 1012.4
20260501205802 56 199 0.0 0.9 0.00 0.00 0.00 78 1012.6
20260501205306 56 200 0.0 2.6 0.00 0.00 0.00 78 1012.6
20260501205037 56 226 0.0 2.6 0.00 0.00 0.00 77 1012.6
20260501204303 57 350 0.0 1.7 0.00 0.00 0.00 76 1012.6
20260501203803 58 233 0.0 3.5 0.00 0.00 0.00 74 1012.7
20260501203303 59 202 0.0 3.5 0.00 0.00 0.00 69 1012.6
20260501202802 60 53 0.0 3.5 0.00 0.00 0.00 64 1012.5
20260501202306 61 135 0.0 3.5 0.00 0.00 0.00 61 1012.3
20260501201803 62 95 0.0 2.6 0.00 0.00 0.00 59 1012.3
20260501201303 63 62 0.0 1.7 0.00 0.00 0.00 58 1012.4
20260501201024 64 216 0.0 1.7 0.00 0.00 0.00 56 1012.6
20260501200524 65 98 0.0 0.9 0.00 0.00 0.00 55 1012.7
20260501195803 65 76 0.0 1.7 0.00 0.00 0.00 57 1012.7
20260501195305 64 230 0.0 1.7 0.00 0.00 0.00 58 1012.8
20260501194804 64 79 0.0 3.5 0.00 0.00 0.00 56 1012.7
20260501194303 65 233 0.0 3.5 0.00 0.00 0.00 56 1012.7
20260501194026 65 203 0.0 2.6 0.00 0.00 0.00 56 1012.7
20260501193303 65 204 0.0 3.5 0.00 0.00 0.00 56 1012.7
20260501192803 65 56 0.0 3.5 0.00 0.00 0.00 56 1012.8
20260501192305 65 197 0.0 3.5 0.00 0.00 0.00 56 1012.9
20260501192024 66 233 0.0 4.3 0.00 0.00 0.00 55 1013.0
20260501191301 66 108 0.0 4.3 0.00 0.00 0.00 55 1013.1
20260501191239 66 49 0.0 1.7 0.00 0.00 0.00 55 1013.1
20260501190254 66 20 0.0 1.7 0.00 0.00 0.00 55 1013.2
20260501185746 65 235 0.0 2.6 0.00 0.00 0.00 54 1013.2
20260501185242 65 41 0.0 2.6 0.00 0.00 0.00 58 1013.4
20260501185000 64 211 0.0 1.7 0.00 0.00 0.00 56 1013.6
20260501184237 64 42 0.0 1.7 0.00 0.00 0.00 53 1013.8
20260501183735 65 46 0.0 1.7 0.00 0.00 0.00 53 1013.8